TimeMDT,TemperatureF,Dew PointF,Humidity,Sea Level PressureIn,VisibilityMPH,Wind Direction,Wind SpeedMPH,Gust SpeedMPH,PrecipitationIn,Events,Conditions,WindDirDegrees,DateUTC
12:53 AM,34.0,18.0,52,30.01,10.0,Calm,Calm,-,N/A,,Clear,0,2012-10-08 06:53:00
1:53 AM,32.0,17.1,54,30.01,10.0,Calm,Calm,-,N/A,,Clear,0,2012-10-08 07:53:00
2:53 AM,30.0,15.1,54,30.00,10.0,Calm,Calm,-,N/A,,Clear,0,2012-10-08 08:53:00
3:53 AM,30.9,19.0,61,29.98,10.0,SSE,3.5,-,N/A,,Clear,150,2012-10-08 09:53:00
4:53 AM,30.0,18.0,61,29.99,10.0,Calm,Calm,-,N/A,,Clear,0,2012-10-08 10:53:00
5:53 AM,30.0,16.0,56,29.98,10.0,Calm,Calm,-,N/A,,Clear,0,2012-10-08 11:53:00
6:53 AM,27.0,10.9,51,30.01,10.0,Calm,Calm,-,N/A,,Clear,0,2012-10-08 12:53:00
7:53 AM,28.0,16.0,61,30.01,10.0,Calm,Calm,-,N/A,,Clear,0,2012-10-08 13:53:00
8:53 AM,30.0,19.0,64,30.01,10.0,Calm,Calm,-,N/A,,Clear,0,2012-10-08 14:53:00
9:53 AM,35.1,19.0,52,30.00,10.0,SE,3.5,-,N/A,,Clear,130,2012-10-08 15:53:00
10:53 AM,44.1,21.9,42,29.97,10.0,Calm,Calm,-,N/A,,Clear,0,2012-10-08 16:53:00
11:53 AM,50.0,21.0,32,29.93,10.0,Calm,Calm,-,N/A,,Clear,0,2012-10-08 17:53:00
12:53 PM,55.0,21.9,28,29.91,10.0,Calm,Calm,-,N/A,,Clear,0,2012-10-08 18:53:00
1:53 PM,57.9,19.9,23,29.87,10.0,Variable,3.5,-,N/A,,Clear,0,2012-10-08 19:53:00
2:53 PM,59.0,19.9,22,29.86,10.0,Variable,3.5,-,N/A,,Clear,0,2012-10-08 20:53:00
3:53 PM,60.1,21.9,23,29.84,10.0,North,3.5,-,N/A,,Clear,360,2012-10-08 21:53:00
4:53 PM,59.0,21.9,24,29.85,10.0,NNW,8.1,-,N/A,,Clear,330,2012-10-08 22:53:00
5:53 PM,57.0,28.0,33,29.86,10.0,NNW,11.5,-,N/A,,Clear,340,2012-10-08 23:53:00
6:53 PM,54.0,32.0,43,29.90,10.0,NNW,16.1,-,N/A,,Clear,330,2012-10-09 00:53:00
8:53 PM,50.0,34.0,54,29.94,10.0,NW,15.0,-,N/A,,Clear,320,2012-10-09 02:53:00
9:53 PM,48.9,35.1,59,29.95,10.0,NNW,19.6,-,N/A,,Scattered Clouds,330,2012-10-09 03:53:00
10:53 PM,46.9,34.0,61,29.95,10.0,NNW,18.4,-,N/A,,Overcast,330,2012-10-09 04:53:00
11:53 PM,44.1,34.0,68,29.97,10.0,NW,25.3,31.1,N/A,,Overcast,320,2012-10-09 05:53:00